sat.trackr.live / text

‹ back to catalog

STARLINK-4208

NORAD 52844 · 2022-062Q

PAYLOAD ACTIVE UNKNOWN

§ Identity

Operator
Country
US
Launch date
2022-06-17
Launch site
AFETR
Launch vehicle
Mass (kg)
RCS (m²)

Purposes: comms

External: N2YO · Heavens-Above · Gunter

§ Orbital elements

Epoch: 2026-09-19T12:36:09.993024Z

Period
93.90 min
Inclination
53.1581°
Eccentricity
0.0001218
Mean motion
15.33566803 rev/d
Perigee alt
464.3 km
Apogee alt
466.0 km
Semi-major
6,843.3 km
B*
1.0609e-4
RAAN
231.7813°
Arg perigee
66.1109°
Mean anomaly
294.0021°
Rev number
23,521

§ Raw data

STARLINK-42081 52844U 22062Q   26262.52511566  .00003120  00000+0  10609-3 0  99982 52844  53.1581 231.7813 0001218  66.1109 294.0021 15.33566803235219

JSON: /api/v1/satellites/52844 · /tle

For live sub-satellite position, see the globe view (requires WebGL).

§ Visibility from observer

Set your observer location to see the next 7 days of passes ≥ 10°. The values pass through the URL so the page stays shareable.

No JS? Fill the form by hand. The geolocation button needs JavaScript.